Location: Unspecified
(43.4794°N, 0.0000°E)
Time: 09:39:34
(UTC+00:00)

NOAA 16 DEB - Visible Passes

Search period start: 04 April 2026 00:00
Search period end: 14 April 2026 00:00
Orbit: 802 x 889 km, 98.8° (Epoch: 27 March)

Date Brightness Start Highest point End Pass type
(mag) Time Alt. Az. Time Alt. Az. Time Alt. Az.
4 Apr ? 04:48:14 10° NE 04:52:08 19° E 04:55:58 10° SE visible
5 Apr ? 04:35:41 10° NE 04:38:38 14° E 04:41:33 10° ESE visible
6 Apr ? 04:24:03 10° ENE 04:25:07 11° E 04:26:10 10° E visible
11 Apr ? 04:55:20 10° NE 04:59:30 22° E 05:03:36 10° SE visible
12 Apr ? 04:42:35 10° NE 04:45:59 17° E 04:49:20 10° SE visible
13 Apr ? 04:30:16 10° ENE 04:32:25 12° E 04:34:33 10° ESE visible
